Weather Roundup
Issued by NWS

Home | Current Version | Previous Version | Text Only | Print | Product List | Glossary On
Versions: 1 2 3 4 5 6 7 8 9 10 11 12 13 14 15 16 17 18 19 20 21 22 23 24 25 26 27 28 29 30 31 32 33 34 35 36 37 38 39 40 41 42 43 44 45 46 47 48 49 50
000
CXUS53 KTOP 300310
HRRKS

...ACROSS KANSAS...

900 PM CST MON NOV 29 2021
WESTERN KANSAS

CITY           SKY/WX    TMP DP  RH WIND       PRES   REMARKS
GOODLAND       CLEAR     41  23  48 SE6       30.05S
HILL CITY      CLEAR     43  30  60 S5        30.02S
DODGE CITY     CLEAR     55  33  43 E8        30.02S
GARDEN CITY    CLEAR     51  29  42 VRB3      30.03S
LIBERAL        CLEAR     43  24  47 E3        30.03S
ELKHART        CLEAR     50  25  37 SE8       30.06F
HAYS           CLEAR     47  31  53 NW7       30.02R
RUSSELL        CLEAR     55  32  41 N7        30.00R
MEDICINE LDG     N/A     56  34  43 CALM      29.98S

CENTRAL KANSAS

CITY           SKY/WX    TMP DP  RH WIND       PRES   REMARKS
GREAT BEND     CLEAR     44  30  57 NW3       30.02R
CONCORDIA      CLEAR     51  34  52 NW9       30.00R
SALINA         CLEAR     49  33  54 NW6       29.99R
HUTCHISON      CLEAR     42  32  67 CALM      29.99R
NEWTON         CLEAR     57  35  43 S6        30.00R
WICHITA        CLEAR     50  36  58 CALM      29.99R
WINFIELD       CLEAR     46  35  65 CALM      30.00S

EASTERN KANSAS

CITY           SKY/WX    TMP DP  RH WIND       PRES   REMARKS
MARYSVILLE     PTCLDY    48  36  61 N3        29.99R
MANHATTAN      CLEAR     46  35  65 CALM      29.98R
TOPEKA         CLEAR     45  37  73 CALM      29.96R
FORBES         CLEAR     46  35  65 CALM      29.96R
OLATHE IND     CLEAR     50  36  58 S5        29.97R
LAWRENCE       CLEAR     38  34  85 CALM      29.96R
OTTAWA         FAIR      50  37  62 S6        29.96R
EMPORIA        CLEAR     52  36  54 W5        29.97S
IOLA           CLEAR     47  37  65 S3        29.99S
CHANUTE        CLEAR     51  37  58 SW6       29.99R

...ADJACENT STATES...


CITY           SKY/WX    TMP DP  RH WIND       PRES   REMARKS
KCI AIRPORT    PTCLDY    57  36  45 SW7       29.95R
ST JOSEPH      CLEAR     40  33  76 CALM      29.95R
FALLS CITY     CLEAR     54  36  50 W10       29.96R
BEATRICE       CLEAR     42  32  67 W5        29.99R
OMAHA          CLEAR     51  34  52 N10       29.95R
LINCOLN        CLEAR     41  32  70 N6        29.99R
GRAND ISLAND   PTCLDY    45  29  53 NW8       30.02R
NORTH PLATTE   CLEAR     38  26  62 CALM      30.04R
SCOTTSBLUFF    PTCLDY    40  24  53 E3        30.03F
CHEYENNE       MOCLDY    48  21  34 SW7       30.13R


CITY           SKY/WX    TMP DP  RH WIND       PRES   REMARKS
DENVER         CLEAR     49  22  34 S6        30.11R
COLO SPRINGS   CLEAR     45  16  31 N3        30.16F
RAPID CITY     CLOUDY    44  31  60 W5        30.06R
AMARILLO       CLEAR     52  23  32 S7        30.06S
OKLA CITY      CLEAR     51  34  52 S8        30.02S
TULSA          CLEAR     57  37  47 S7        29.99S
LITTLE ROCK    CLEAR     52  37  56 SW7       30.10R
SPRINGFIELD    CLEAR     48  37  65 SW8       30.00R
COLUMBIA       CLEAR     52  37  56 W8        29.93S


CITY           SKY/WX    TMP DP  RH WIND       PRES   REMARKS
ST LOUIS       CLEAR     50  31  48 SW9       29.93R
DES MOINES     PTCLDY    50  35  56 NW10      29.91R
BISMARK        MOCLDY    41  34  76 W6        30.04R
BURLINGTON KS  FAIR      51  31  46 CALM      29.98S
FORT SCOTT     CLEAR     46  34  61 S7        29.97S
HEBRON         CLEAR     43  34  71 CALM      30.00S
COFFEYVILLE    CLEAR     48  36  63 S3        29.99S


USA.gov is the U.S. government's official web portal to all federal, state and local government web resources and services.